map of CCK home
CCK - Airport
Location
City:  West Island, Keeling Cocos
Near (Alt.):Pulau Panjang
Name:Cocos (Keeling) Islands
ICAO:YPCC
IATA:CCK

Details
Type:Airport (Aerodrome, Airfield)
Latitude:1211'18"S (-12.188332)
Longitude:9650'02"E (96.833889)
Datum:WGS 1984
Elevation:10 ft (3 m)
Variation:1.85W (WMM2015 magnetic declination)
0.07 annual change
Runways:1
Longest:7999 × 148 ft (2438 × 45 m), paved

Time
Time Zone:UTC+6:30
Local Time:

Weather
METAR:YPCC 210100Z 05007KT 9999 VCSH FEW015 BKN160 27/25 Q1007 RF00.0/057.8 DIST CB TOPS SE
TAF:YPCC 202305Z 2100/2124 09012KT 8000 -RA SCT010 BKN018
TEMPO 2100/2124 VRB20G30KT 0500 TSRA BKN002 SCT015CB

Related Locations
Nearby:
Farthest:RNI: 12443 mi / 20025 km
Corn Island [Intl], AS, NI

Find:

   beyond  
but within

Other Information
Maps:
NOTAMs:
Links:
Sources:

  
  • flag of Keeling Cocos
  

Sectional Chart

Flight Planning
at skyvector.com

Satellite Image

Google Maps Satellite view

 

Copyright © 2004-2019 Karl L. Swartz. All rights reserved.
The Great Circle Mapper name and logo are trademarks of the Great Circle Mapper.
All other trademarks mentioned herein belong to their respective owners.
Please see credits for attibutions and further copyright information.

  Follow gcmap on Facebook Follow gcmap on Twitter Follow gcmap on Google+ GCmap on LinkedIn

hCard Microformat

Geo Microformat